Location: Fort Frances
(48.6170°N, 93.4170°W)
Time: 08:40:38
(UTC-05:00)

ISS - All Passes

Search period start: 28 September 2016 00:00
Search period end: 08 October 2016 00:00
Orbit: 400 x 410 km, 51.6° (Epoch: 28 September)

Date Brightness Start Highest point End Pass type
(mag) Time Alt. Az. Time Alt. Az. Time Alt. Az.
28 Sep - 01:21:58 10° WNW 01:25:13 60° NNE 01:28:30 10° E night (unlit)
28 Sep - 02:58:33 10° WNW 03:01:40 39° SSW 03:04:45 10° SE night (unlit)
28 Sep - 21:16:45 10° SW 21:19:50 41° SSE 21:22:58 10° ENE visible
28 Sep - 22:53:03 10° W 22:56:17 58° NNW 22:59:33 10° ENE night (unlit)
29 Sep - 00:29:52 10° WNW 00:33:05 51° N 00:36:19 10° E night (unlit)
29 Sep - 02:06:25 10° WNW 02:09:40 62° SSW 02:12:55 10° SE night (unlit)
29 Sep - 03:44:09 10° WSW 03:45:37 13° SW 03:47:06 10° SSW night (unlit)
29 Sep - 20:25:08 10° SSW 20:27:54 26° SE 20:30:41 10° E visible
29 Sep - 22:00:54 10° WSW 22:04:10 76° NNW 22:07:28 10° ENE visible
29 Sep - 23:37:44 10° WNW 23:40:55 47° N 23:44:06 10° ENE night (unlit)
30 Sep - 01:14:19 10° WNW 01:17:36 89° NE 01:20:54 10° ESE night (unlit)
30 Sep - 02:51:15 10° W 02:53:46 20° SW 02:56:18 10° S night (unlit)
30 Sep - 19:33:54 10° S 19:36:01 16° SE 19:38:07 10° E visible
30 Sep - 21:08:49 10° WSW 21:12:04 77° SSE 21:15:21 10° ENE visible
30 Sep - 22:45:32 10° W 22:48:43 48° N 22:51:55 10° ENE night (unlit)
01 Oct - 00:22:13 10° WNW 00:25:29 66° NNE 00:28:45 10° E night (unlit)
01 Oct - 01:58:52 10° W 02:01:51 32° SW 02:04:50 10° SSE night (unlit)
01 Oct - 20:16:52 10° SW 20:20:01 50° SSE 20:23:12 10° ENE visible
01 Oct - 21:53:19 10° W 21:56:32 54° N 21:59:46 10° ENE visible
01 Oct - 23:30:06 10° WNW 23:33:19 53° N 23:36:33 10° E night (unlit)
02 Oct - 01:06:38 10° WNW 01:09:51 52° SSW 01:13:03 10° SE night (unlit)
02 Oct - 02:45:22 10° SW 02:45:43 10° SW 02:46:04 10° SW night (unlit)
02 Oct - 19:25:06 10° SSW 19:28:01 31° SE 19:30:57 10° E visible
02 Oct - 21:01:06 10° W 21:04:21 68° NNW 21:07:37 10° ENE visible
02 Oct - 22:37:55 10° WNW 22:41:07 48° N 22:44:18 10° E visible
03 Oct - 00:14:29 10° WNW 00:17:46 80° SSW 00:21:02 10° ESE night (unlit)
03 Oct - 01:51:37 10° W 01:53:51 17° SW 01:56:05 10° S night (unlit)
03 Oct - 18:33:39 10° S 18:36:04 19° SE 18:38:29 10° E daylight
03 Oct - 20:08:57 10° WSW 20:12:12 88° SSE 20:15:29 10° ENE visible
03 Oct - 21:45:42 10° WNW 21:48:53 47° N 21:52:04 10° ENE visible
03 Oct - 23:22:21 10° WNW 23:25:38 74° NNE 23:28:54 10° ESE night (unlit)
04 Oct - 00:59:04 10° W 01:01:55 27° SW 01:04:45 10° SSE night (unlit)
04 Oct - 17:42:57 10° SSE 17:44:10 12° SE 17:45:23 10° ESE daylight
04 Oct - 19:16:54 10° SW 19:20:05 59° SSE 19:23:19 10° ENE visible
04 Oct - 20:53:27 10° W 20:56:40 51° N 20:59:52 10° ENE visible
04 Oct - 22:30:12 10° WNW 22:33:26 57° NNE 22:36:40 10° E visible
05 Oct - 00:06:45 10° WNW 00:09:54 44° SSW 00:13:02 10° SE night (unlit)
05 Oct - 18:25:00 10° SW 18:28:01 37° SSE 18:31:04 10° ENE daylight
05 Oct - 20:01:11 10° W 20:04:26 62° NNW 20:07:41 10° ENE visible
05 Oct - 21:38:00 10° WNW 21:41:12 49° N 21:44:24 10° E visible
05 Oct - 23:14:33 10° WNW 23:17:48 69° SSW 23:21:03 10° ESE night (unlit)
06 Oct - 00:51:59 10° WSW 00:53:49 14° SW 00:55:39 10° S night (unlit)
06 Oct - 17:33:22 10° SSW 17:36:01 23° SE 17:38:40 10° E daylight
06 Oct - 19:08:58 10° WSW 19:12:13 82° NNW 19:15:30 10° ENE visible
06 Oct - 20:45:46 10° WNW 20:48:56 47° N 20:52:07 10° ENE visible
06 Oct - 22:22:22 10° WNW 22:25:39 82° NNE 22:28:55 10° ESE visible
06 Oct - 23:59:12 10° W 00:01:52 23° SW 00:04:32 10° SSE night (unlit)
07 Oct - 16:42:14 10° S 16:44:03 14° SE 16:45:52 10° ESE daylight
07 Oct - 18:16:50 10° WSW 18:20:03 69° SSE 18:23:19 10° ENE daylight
07 Oct - 19:53:28 10° W 19:56:40 49° N 19:59:51 10° ENE visible
07 Oct - 21:30:11 10° WNW 21:33:26 62° NNE 21:36:41 10° E visible
07 Oct - 23:06:47 10° WNW 23:09:49 37° SSW 23:12:52 10° SE night (unlit)
